www.pogodaiklimat.ru
ПОГОДА в Цогт-Овоо
Время
(UTC), дата
18 30.07
21 30.07
00 31.07
03 31.07
06 31.07
09 31.07
12 31.07
15 31.07
18 31.07
21 31.07
00 1.08
03 1.08
06 1.08
09 1.08
12 1.08
15 1.08
18 1.08
21 1.08
00 2.08
03 2.08
06 2.08
09 2.08
12 2.08
15 2.08
18 2.08
21 2.08
00 3.08
03 3.08
06 3.08
09 3.08
12 3.08
15 3.08
18 3.08
21 3.08
00 4.08
03 4.08
06 4.08
09 4.08
12 4.08
15 4.08
18 4.08
21 4.08
00 5.08
03 5.08
06 5.08
09 5.08
12 5.08
15 5.08
18 5.08
21 5.08
00 6.08
03 6.08
06 6.08
09 6.08
12 6.08
15 6.08
Ветер
(напр.,м/с)
Видим. Явления Облачность Т
(С)
Тd
(С)
f
(%)
Тe
(С)
Тes
(С)
Комфортность P
(гПа)
Po
(гПа)
Тmin
(С)
Tmax
(С)
R
(мм)
R24
(мм)
S
(см)
СВ 2 50 км ясно +23.0 -1.0 20 +22 +22 комфорт 1002.4 862.9
ЮЗ 1 50 км 6/0
[Ac As]
+21.1 -0.5 24 +21 +21 комфорт 1002.6 862.3
штиль 0 50 км 3/0
[Ac lent]
+25.4 +3.3 24 +24 +28 комфорт 1000.5 862.4 +19.2
СЗ 9
{31}
50 км шквал 8/8 600 м
[Cb cap]
+23.7 +7.6 36 +24 +24 комфорт 1003.0 863.8
ЮВ 1 10 км в посл. час ливневой дождь {гроза} туман 9/9 600 м
[Cb cap]
+25.7 +12.4 44 +27 +29 жарко 998.1 860.5
З 13 4000 м пыльная буря {гроза} 6/0
[As op]
+29.1 +1.9 17 +27 +27 жарко 994.4 858.7
З 14 20 км пыльная буря на расстоянии {гроза} 6/0
[Ac As]
+25.2 -2.5 16 +23 +23 комфорт 997.0 859.4 +30.9 0.6
СЗ 6 50 км ясно +20.8 +3.3 32 +21 +21 комфорт 1001.3 861.1
З 3 50 км ясно +16.8 +3.5 41 +17 +17 1003.2 860.9
З 6 50 км ясно +15.1 +3.1 44 +14 +14 1003.1 860.1
З 14 20 км пыльная буря на расстоянии 1/0
[Ac lent]
+17.7 +4.0 40 +16 +16 1001.7 860.2 +14.3
З 16 10 км пыльная буря 8/0
[Cs]
+21.5 +3.6 31 +22 +22 комфорт 998.8 859.2
З 13 20 км пыльная буря на расстоянии 9/3 1000 м
[Cu hum Cs]
+24.7 +3.5 25 +24 +24 комфорт 996.6 858.8
СЗ 12 20 км пыльная буря на расстоянии 8/4 1000 м
[Cu med, cong Ac As]
+25.5 +4.4 26 +25 +25 комфорт 996.1 858.7
СЗ 8 50 км 3/0
[Ac cuf]
+23.1 +7.1 36 +24 +24 комфорт 998.6 859.7 +26.0
С 9 н/о слаб. дождь 10/10 600 м
[Sc As op]
+16.8 +11.9 73 +15 +15 1004.7 862.2
С 8 н/о {дождь} 10/0
[As op]
+16.2 +10.5 69 +15 +15 1006.5 863.5
СЗ 5 н/о 10/0
[As op]
+14.4 +14.1 98 +13 +13 1008.1 864.0
СЗ 8 50 км 3/0
[Ac lent]
+15.7 +12.9 83 +14 +14 1008.3 864.8 +13.3 0.5
С 7 50 км 5/5 1000 м
[Cu med, cong]
+20.3 +9.0 48 +21 +23 комфорт 1005.9 864.8
СЗ 8 50 км 8/8 600 м
[Cb calv]
+23.5 +7.4 36 +24 +25 комфорт 1003.1 863.9
С 8 50 км 8/8 600 м
[Cb calv]
+25.7 +5.8 28 +25 +25 комфорт 1001.5 863.4
С 7 50 км 4/4 1000 м
[Cu hum]
+24.2 +5.1 29 +24 +24 комфорт 1002.9 863.9 +26.4
СВ 4 50 км 3/0
[Ac cast]
+20.3 +7.4 43 +21 +21 комфорт 1006.7 865.5
С 4 50 км 1/0
[Ac cast]
+17.1 +7.9 55 +17 +17 1008.8 865.9
С 4 50 км 3/0
[Ac trans]
+16.9 +8.5 58 +16 +16 1009.6 866.5
С 6 50 км 1/0
[Ac lent]
+18.2 +9.1 55 +18 +19 1009.8 867.2 +15.8
СЗ 7 50 км 1/1 1000 м
[Cu hum]
+22.4 +8.3 40 +24 +27 комфорт 1007.4 867.0
С 7 50 км 4/3 1000 м
[Cu hum Ci fib]
+25.5 +6.0 29 +25 +28 комфорт 1004.1 865.6
З 7 50 км 8/3 1000 м
[Cu hum Cs]
+27.6 +5.5 24 +27 +28 жарко 1002.1 864.7
С 5 50 км 8/0
[Cs]
+25.5 +6.4 29 +25 +25 комфорт 1003.5 865.0 +28.0
СВ 5 50 км 8/0
[Cs]
+21.4 +7.8 42 +22 +22 комфорт 1007.5 866.6
В 4 50 км 3/0
[Ac lent Ci fib]
+18.3 +9.4 56 +18 +18 1009.9 867.3
СВ 4 50 км ясно +16.3 +10.1 67 +16 +16 1010.7 867.1
СВ 5 50 км 1/0
[Ci fib]
+17.4 +10.8 65 +17 +18 1010.7 867.6 +15.4
СВ 3 50 км 4/0
[Ac lent Ci fib]
+23.3 +9.6 42 +25 +35 комфорт 1007.5 867.6
С 4 50 км 6/1 1000 м
[Cu hum Cs]
+27.4 +7.3 28 +27 +36 жарко 1004.2 866.4
СВ 4 50 км 6/3 1000 м
[Cu hum Ac lent Ci fib]
+28.5 +6.1 24 +27 +30 жарко 1002.3 865.3
В 4 50 км 1/0
[Ac cast]
+27.3 +6.3 26 +27 +27 жарко 1002.9 865.3 +28.9
В 6 50 км ясно +23.8 +5.0 30 +24 +24 комфорт 1005.4 866.0
В 5 50 км ясно +21.0 +7.0 40 +22 +22 комфорт 1007.1 866.1
В 4 50 км ясно +19.3 +8.2 49 +20 +20 1008.2 866.3
ЮВ 5 50 км ясно +22.7 +9.8 44 +24 +26 комфорт 1007.0 866.8 +18.7
ЮВ 5 50 км 1/1 1000 м
[Cu hum]
+27.5 +9.0 31 +28 +34 жарко 1004.3 866.6
В 5 50 км 3/3 1000 м
[Cu hum]
+30.5 +7.3 23 +29 +35 жарко 1001.7 865.6
ЮВ 4 50 км 4/4 1000 м
[Cu med, cong]
+31.5 +5.7 20 +30 +32 жарко 999.7 864.3
В 6 50 км 4/0
[Ac cuf Ci fib]
+29.6 +5.1 21 +28 +28 жарко 1000.9 864.5 +32.1
ЮВ 8 50 км 5/0
[Cs]
+26.0 +5.0 26 +25 +25 комфорт 1003.5 865.3
ЮВ 8 50 км 3/0
[Ac lent Ci fib]
+23.5 +6.3 33 +24 +24 комфорт 1004.4 865.0
В 6 50 км 3/0
[Ac As]
+22.1 +6.9 37 +23 +23 комфорт 1004.8 864.7
ЮЗ 2 50 км 8/3 1000 м
[Sc Ac As]
+24.0 +7.4 34 +24 +25 комфорт 1005.0 865.7 +21.5
С 5 50 км 10/0
[As trans]
+26.8 +8.1 31 +27 +30 жарко 1003.6 865.7
С 2 50 км 9/4 600 м
[Cb cap As trans]
+27.5 +9.8 33 +28 +33 жарко 1002.1 864.7
Ю 5 50 км 3/1 600 м
[Cb calv Ci fib]
+30.1 +8.4 26 +29 +32 жарко 997.9 862.2
ЮВ 2 50 км 4/3 600 м
[Cb calv Ci]
+29.3 +7.9 26 +29 +29 жарко 997.5 861.5 +30.7
В 8 н/о зарница 10/10 600 м
[Cb cap]
+24.6 +10.8 42 +26 +26 жарко 1000.8 862.3
Местоположение метеостанции Цогт-Овоо (Монголия): широта 44.42 долгота 105.31 высота над уровнем моря 1298 м.
В архиве по умолчанию представлена погода в Цогт-Овоо за последнюю неделю. Архивные данные за месяц целиком и за предыдущие месяцы, начиная с января 2011 года, Вы можете получить, выбрав интересующий диапазон дат из раскрывающегося списка и нажав кнопку "Найти!".
*Определитесь, кто Вы:
Внимание! Время в таблицах - всемирное. Для получения местного времени необходимо прибавить поправку, которая равна 8 ч.
Смотрите также архив погоды в соседних городах и на ближайших метеорологических станциях:
Партнеры нашего сайта:      
Пояснения к столбцам:
  • Ветер - указаны скорость ветра в м/с - средняя за 10 мин, порывы в срок и между сроками (в фигурных скобках) и направление, откуда дует ветер: С - северный,
  • СВ - северо-восточный, В - восточный, ЮВ - юго-восточный, Ю - южный, ЮЗ - юго-западный, З - западный, СЗ - северо-западный.
  • Видимость - горизонтальная дальность видимости в метрах или километрах. При видимости от 1 до 10 км при отсутствии осадков обычно наблюдается дымка, при ухудшении видимости до 1 км и менее - туман. В сухую погоду видимость может ухудшаться дымом, пылью или мглою.
  • Явления - указаны атмосферные явления, наблюдавшиеся в срок или в последний час перед сроком; фигурными скобками обозначены явления, наблюдавшиеся между сроками (за 1-3 часа до срока); квадратными скобками обозначены град или гололедные отложения с указанием их диаметра в мм.
  • Облачность - указаны через наклонную черту общая и нижняя облачность в баллах и высота нижней границы облаков в метрах; квадратными скобками обозначены формы облаков: Ci - перистые, Cs - перисто-слоистые, Cc - перисто-кучевые, Ac - высококучевые, As - высокослоистые, Sc - слоисто-кучевые, Ns - слоисто-дождевые, Cu - кучевые, Cb - кучево-дождевые. Подробнее классификацию облаков см. в Атласе облаков (PDF).
  • T - Температура воздуха - температура, измеренная на высоте 2 м над землей.
  • Td - Температура точки росы - температура, при понижении до которой содержащийся в воздухе водяной пар достигнет насыщения.
  • f - Относительная влажность воздуха - влажноcть воздуха, измеренная на высоте 2 м над землей.
  • Te - Эффективная температура - температура, которую ощущает одетый по сезону человек в тени. Характеристика душности погоды. При расчете учитывается влияние влажности воздуха и скорости ветра на теплоощущения человека.
  • Tes - Эффективная температура на солнце - температура, которую ощущает человек, с поправкой на солнечный нагрев. Характеристика знойности погоды. Зависит от высоты солнца над горизонтом, облачности и скорости ветра. Ночью, в пасмурную погоду, а также при ветре 12 м/с и более поправка равна нулю.
  • P - Атмосферное давление - приведенное к уровню моря атмосферное давление.
  • Po - Атмосферное давление - измеренное на уровне метеостанции атмосферное давление.
  • Tmin - Минимальная температура - минимум температуры воздуха на высоте 2 м над землей.
  • Tmax - Максимальная температура - максимум температуры воздуха на высоте 2 м над землей.
  • R - Количество осадков - Количество выпавших осадков за период времени, мм. При наведении курсора мыши на число - период времени, за который выпало указанное количество осадков.
  • R24 - Количество осадков - Количество выпавших осадков за 24 часа, мм.
  • S - Снежный покров - Высота снежного покрова, см. При наведении курсора мыши на число - состояние снежного покрова и степень покрытия местности в баллах.